Погода в Староказачье

Украина / Одесская область     46°20′06″N   29°58′45″E
темп.,
°C
ветер,
м/с
пор.,
м/с
влажн.,
%
обл.,
%
осадки,
мм/ч
давл.,
гПа
погр.,
м
2 марта, вт
вт223:00+2с488195 0.0 1033388
02:000с378785 0.0 1033158
05:000сз247760 0.0 1032103
08:00+2зсз237378 0.0 1032159
11:00+5зсз456052 0.0 10311045
14:00+8з565458 0.0 10291051
17:00+8з5105964 0.0 1026611
20:00+5з5116743 0.0 1026249
3 марта, ср
ср323:00+5сз5147428 0.0 1026422
02:00+4ссз6138114 0.0 1027537
05:00+4с6107577 0.0 1027871
08:00+4ссз486782 0.0 1030981
11:00+7ссз575513 0.0 10301089
14:00+9ссз45457 0.0 10291247
17:00+9сз34466 0.0 10281196
20:00+6сз125653 0.0 102922
4 марта, чт
чт423:00+5юз12570 0.0 102822
02:00+3ююз34670 0.0 102670
05:00+3ююз46880 0.0 1023118
08:00+4ююз511790 0.0 1022314
11:00+10юз711570 0.0 1020727
14:00+13юз811490 0.0 10171020
17:00+12юз59522 0.0 1015515
20:00+8ююз59759 0.0 1015213
5 марта, пт
пт523:00+6ююз488237 0.0 1014176
02:00+6юз348342 0.0 101375
05:00+5ююз348548 0.0 101252
08:00+6юз357974 0.0 1012133
11:00+12юз4553100 0.0 1011443
14:00+15зюз453994 0.0 1010921
17:00+14зсз234325 0.0 101057
20:00+10св235613 0.0 101134
6 марта, сб
сб623:00+7ссв347634 0.0 101297
02:00+6с6118867 0.0 1014451
05:00+5с71087100 0.0 1015543
08:00+1ссв81291100 0.1 1019698
11:00+4ссв81051100 0.1 10211243
14:00+4с7942100 0.1 10221616
17:00+3с7937100 0.0 10241667
20:00+1с394862 0.0 1026297